| time (UTC) | temp F | wind direction | speed MPH | gust MPH | rain 1hr in | rain 24hr in | rain mn in | humidity % | barometer mb |
| 20260508225037 | 67 | 208 | 0.0 | 2.0 | 0.00 | 0.00 | 0.00 | 63 | 1013.2 |
| 20260508224537 | 67 | 208 | 0.0 | 3.0 | 0.00 | 0.00 | 0.00 | 56 | 1013.2 |
| 20260508224036 | 68 | 200 | 0.0 | 3.0 | 0.00 | 0.00 | 0.00 | 57 | 1013.2 |
| 20260508223536 | 68 | 219 | 0.0 | 2.0 | 0.00 | 0.00 | 0.00 | 62 | 1013.3 |
| 20260508223038 | 68 | 249 | 0.0 | 7.0 | 0.00 | 0.00 | 0.00 | 54 | 1013.3 |
| 20260508222536 | 68 | 249 | 1.0 | 7.0 | 0.00 | 0.00 | 0.00 | 54 | 1013.2 |
| 20260508222035 | 68 | 200 | 0.0 | 6.0 | 0.00 | 0.00 | 0.00 | 52 | 1013.4 |
| 20260508221537 | 69 | 223 | 1.0 | 6.0 | 0.00 | 0.00 | 0.00 | 50 | 1013.3 |
| 20260508221036 | 69 | 212 | 1.0 | 6.0 | 0.00 | 0.00 | 0.00 | 53 | 1013.4 |
| 20260508220535 | 69 | 157 | 1.0 | 5.0 | 0.00 | 0.00 | 0.00 | 52 | 1013.5 |
| 20260508220040 | 70 | 213 | 0.0 | 6.0 | 0.00 | 0.00 | 0.00 | 51 | 1013.5 |
| 20260508215532 | 70 | 235 | 0.0 | 8.0 | 0.00 | 0.00 | 0.00 | 47 | 1013.5 |
| 20260508215033 | 70 | 223 | 2.0 | 6.0 | 0.00 | 0.00 | 0.00 | 45 | 1013.5 |
| 20260508214534 | 71 | 194 | 1.0 | 7.0 | 0.00 | 0.00 | 0.00 | 48 | 1013.6 |
| 20260508214031 | 71 | 206 | 1.0 | 7.0 | 0.00 | 0.00 | 0.00 | 48 | 1013.5 |
| 20260508213531 | 72 | 98 | 0.0 | 6.0 | 0.00 | 0.00 | 0.00 | 47 | 1013.6 |
| 20260508213044 | 72 | 255 | 1.0 | 4.0 | 0.00 | 0.00 | 0.00 | 44 | 1013.5 |
| 20260508212532 | 73 | 254 | 0.0 | 3.0 | 0.00 | 0.00 | 0.00 | 45 | 1013.7 |
| 20260508212035 | 73 | 261 | 2.0 | 5.0 | 0.00 | 0.00 | 0.00 | 42 | 1013.9 |
| 20260508211534 | 74 | 255 | 0.0 | 5.0 | 0.00 | 0.00 | 0.00 | 45 | 1013.7 |
| 20260508211031 | 74 | 183 | 0.0 | 7.0 | 0.00 | 0.00 | 0.00 | 48 | 1013.6 |
| 20260508210530 | 74 | 234 | 1.0 | 4.0 | 0.00 | 0.00 | 0.00 | 43 | 1013.5 |
| 20260508210033 | 74 | 244 | 0.0 | 3.0 | 0.00 | 0.00 | 0.00 | 47 | 1013.6 |
| 20260508205530 | 73 | 221 | 0.0 | 3.0 | 0.00 | 0.00 | 0.00 | 45 | 1013.6 |
| 20260508205028 | 72 | 260 | 0.0 | 3.0 | 0.00 | 0.00 | 0.00 | 47 | 1013.5 |
| 20260508204528 | 72 | 219 | 0.0 | 6.0 | 0.00 | 0.00 | 0.00 | 50 | 1013.6 |
| 20260508204027 | 71 | 267 | 2.0 | 6.0 | 0.00 | 0.00 | 0.00 | 49 | 1013.6 |
| 20260508203527 | 72 | 192 | 0.0 | 2.0 | 0.00 | 0.00 | 0.00 | 43 | 1013.8 |
| 20260508203033 | 72 | 242 | 0.0 | 3.0 | 0.00 | 0.00 | 0.00 | 45 | 1013.8 |
| 20260508202530 | 72 | 148 | 0.0 | 3.0 | 0.00 | 0.00 | 0.00 | 43 | 1013.9 |
| 20260508202027 | 72 | 261 | 1.0 | 3.0 | 0.00 | 0.00 | 0.00 | 44 | 1013.7 |
| 20260508201527 | 73 | 288 | 0.0 | 2.0 | 0.00 | 0.00 | 0.00 | 42 | 1013.6 |
| 20260508201026 | 73 | 277 | 0.0 | 2.0 | 0.00 | 0.00 | 0.00 | 47 | 1013.7 |
| 20260508200525 | 73 | 214 | 0.0 | 2.0 | 0.00 | 0.00 | 0.00 | 48 | 1013.8 |
| 20260508200028 | 73 | 211 | 0.0 | 2.0 | 0.00 | 0.00 | 0.00 | 45 | 1014.0 |
| 20260508195523 | 73 | 322 | 0.0 | 3.0 | 0.00 | 0.00 | 0.00 | 45 | 1014.1 |
| 20260508195023 | 73 | 258 | 1.0 | 3.0 | 0.00 | 0.00 | 0.00 | 41 | 1014.3 |
| 20260508194523 | 73 | 260 | 0.0 | 4.0 | 0.00 | 0.00 | 0.00 | 47 | 1014.2 |
| 20260508194020 | 72 | 138 | 1.0 | 6.0 | 0.00 | 0.00 | 0.00 | 46 | 1014.3 |
| 20260508193519 | 72 | 264 | 2.0 | 6.0 | 0.00 | 0.00 | 0.00 | 51 | 1014.5 |
| 20260508193019 | 72 | 240 | 0.0 | 4.0 | 0.00 | 0.00 | 0.00 | 50 | 1014.6 |
| 20260508192518 | 73 | 200 | 0.0 | 7.0 | 0.00 | 0.00 | 0.00 | 53 | 1014.7 |
| 20260508192018 | 72 | 242 | 0.0 | 8.0 | 0.00 | 0.00 | 0.00 | 52 | 1015.1 |
| 20260508191525 | 73 | 237 | 0.0 | 4.0 | 0.00 | 0.00 | 0.00 | 47 | 1015.2 |
| 20260508191016 | 73 | 265 | 0.0 | 3.0 | 0.00 | 0.00 | 0.00 | 52 | 1015.4 |
| 20260508190515 | 72 | 244 | 1.0 | 3.0 | 0.00 | 0.00 | 0.00 | 54 | 1015.4 |
| 20260508190015 | 72 | 271 | 0.0 | 3.0 | 0.00 | 0.00 | 0.00 | 51 | 1015.4 |
| 20260508185516 | 72 | 198 | 0.0 | 6.0 | 0.00 | 0.00 | 0.00 | 49 | 1015.5 |
| 20260508185015 | 72 | 263 | 1.0 | 6.0 | 0.00 | 0.00 | 0.00 | 54 | 1015.6 |
| 20260508184518 | 72 | 204 | 0.0 | 6.0 | 0.00 | 0.00 | 0.00 | 57 | 1015.6 |
| 20260508184013 | 72 | 203 | 1.0 | 6.0 | 0.00 | 0.00 | 0.00 | 55 | 1015.6 |
| 20260508183513 | 72 | 142 | 0.0 | 3.0 | 0.00 | 0.00 | 0.00 | 50 | 1015.6 |
| 20260508183014 | 72 | 150 | 0.0 | 4.0 | 0.00 | 0.00 | 0.00 | 51 | 1015.7 |
| 20260508182514 | 72 | 259 | 2.0 | 4.0 | 0.00 | 0.00 | 0.00 | 51 | 1015.8 |
| 20260508182018 | 72 | 252 | 0.0 | 4.0 | 0.00 | 0.00 | 0.00 | 49 | 1015.8 |
| 20260508181535 | 72 | 252 | 1.0 | 4.0 | 0.00 | 0.00 | 0.00 | 51 | 1015.8 |
| 20260508181011 | 72 | 261 | 0.0 | 5.0 | 0.00 | 0.00 | 0.00 | 52 | 1015.7 |
| 20260508180510 | 72 | 143 | 0.0 | 8.0 | 0.00 | 0.00 | 0.00 | 49 | 1016.0 |
| 20260508180008 | 72 | 120 | 2.0 | 8.0 | 0.00 | 0.00 | 0.00 | 55 | 1016.1 |
| 20260508175508 | 71 | 180 | 1.0 | 4.0 | 0.00 | 0.00 | 0.00 | 49 | 1016.1 |
| 20260508175008 | 71 | 77 | 0.0 | 4.0 | 0.00 | 0.00 | 0.00 | 50 | 1016.1 |
| 20260508174514 | 71 | 242 | 0.0 | 6.0 | 0.00 | 0.00 | 0.00 | 50 | 1016.1 |
| 20260508174005 | 70 | 295 | 1.0 | 6.0 | 0.00 | 0.00 | 0.00 | 59 | 1016.1 |
| 20260508173505 | 70 | 261 | 0.0 | 3.0 | 0.00 | 0.00 | 0.00 | 54 | 1016.2 |
| 20260508173002 | 70 | 14 | 0.0 | 2.0 | 0.00 | 0.00 | 0.00 | 53 | 1016.4 |
| 20260508172502 | 69 | 101 | 0.0 | 4.0 | 0.00 | 0.00 | 0.00 | 55 | 1016.5 |
| 20260508172001 | 69 | 100 | 0.0 | 4.0 | 0.00 | 0.00 | 0.00 | 53 | 1016.7 |
| 20260508171604 | 69 | 263 | 1.0 | 3.0 | 0.00 | 0.00 | 0.00 | 53 | 1016.7 |
| 20260508171059 | 69 | 200 | 0.0 | 3.0 | 0.00 | 0.00 | 0.00 | 51 | 1016.8 |
| 20260508170558 | 69 | 70 | 0.0 | 4.0 | 0.00 | 0.00 | 0.00 | 57 | 1017.0 |
| 20260508170058 | 68 | 200 | 1.0 | 4.0 | 0.00 | 0.00 | 0.00 | 53 | 1016.9 |
| 20260508165557 | 68 | 15 | 0.0 | 2.0 | 0.00 | 0.00 | 0.00 | 52 | 1017.1 |
| 20260508165055 | 68 | 119 | 0.0 | 4.0 | 0.00 | 0.00 | 0.00 | 57 | 1017.1 |
| 20260508164557 | 67 | 109 | 0.0 | 4.0 | 0.00 | 0.00 | 0.00 | 48 | 1017.0 |
| 20260508164053 | 67 | 158 | 0.0 | 4.0 | 0.00 | 0.00 | 0.00 | 59 | 1017.1 |
| 20260508163555 | 67 | 194 | 0.0 | 4.0 | 0.00 | 0.00 | 0.00 | 61 | 1017.2 |
| 20260508163051 | 66 | 244 | 1.0 | 4.0 | 0.00 | 0.00 | 0.00 | 53 | 1017.5 |
| 20260508162551 | 67 | 244 | 0.0 | 3.0 | 0.00 | 0.00 | 0.00 | 57 | 1017.5 |
| 20260508162050 | 66 | 248 | 0.0 | 3.0 | 0.00 | 0.00 | 0.00 | 59 | 1017.7 |
| 20260508161549 | 66 | 186 | 0.0 | 3.0 | 0.00 | 0.00 | 0.00 | 52 | 1017.8 |
| 20260508161049 | 66 | 101 | 0.0 | 2.0 | 0.00 | 0.00 | 0.00 | 58 | 1017.7 |
| 20260508160550 | 65 | 227 | 0.0 | 3.0 | 0.00 | 0.00 | 0.00 | 56 | 1017.8 |
| 20260508160047 | 65 | 101 | 0.0 | 3.0 | 0.00 | 0.00 | 0.00 | 54 | 1017.8 |
| 20260508155545 | 65 | 192 | 0.0 | 4.0 | 0.00 | 0.01 | 0.00 | 58 | 1017.9 |
| 20260508155043 | 65 | 134 | 0.0 | 4.0 | 0.00 | 0.01 | 0.00 | 57 | 1017.8 |
| 20260508154552 | 64 | 76 | 0.0 | 2.0 | 0.00 | 0.01 | 0.00 | 54 | 1017.9 |
| 20260508154042 | 64 | 125 | 0.0 | 2.0 | 0.00 | 0.01 | 0.00 | 62 | 1018.0 |
| 20260508153540 | 64 | 99 | 0.0 | 4.0 | 0.00 | 0.01 | 0.00 | 60 | 1018.2 |
| 20260508153039 | 64 | 117 | 0.0 | 4.0 | 0.00 | 0.01 | 0.00 | 54 | 1018.2 |
| 20260508152537 | 63 | 94 | 0.0 | 4.0 | 0.00 | 0.01 | 0.00 | 58 | 1018.4 |
| 20260508152038 | 63 | 139 | 1.0 | 3.0 | 0.00 | 0.01 | 0.00 | 59 | 1018.3 |
| 20260508151535 | 63 | 262 | 0.0 | 4.0 | 0.00 | 0.01 | 0.00 | 55 | 1018.4 |
| 20260508151034 | 63 | 360 | 0.0 | 4.0 | 0.00 | 0.01 | 0.00 | 57 | 1018.5 |
| 20260508150530 | 63 | 98 | 0.0 | 4.0 | 0.00 | 0.01 | 0.00 | 67 | 1018.5 |
| 20260508150030 | 62 | 81 | 0.0 | 4.0 | 0.00 | 0.02 | 0.00 | 58 | 1018.6 |
| 20260508145529 | 61 | 68 | 0.0 | 4.0 | 0.00 | 0.02 | 0.00 | 62 | 1018.6 |
| 20260508145027 | 61 | 97 | 1.0 | 3.0 | 0.00 | 0.02 | 0.00 | 64 | 1018.6 |
| 20260508144526 | 60 | 355 | 0.0 | 3.0 | 0.00 | 0.02 | 0.00 | 62 | 1018.5 |
| 20260508144024 | 59 | 130 | 0.0 | 2.0 | 0.00 | 0.02 | 0.00 | 74 | 1018.5 |
| 20260508143523 | 59 | 94 | 0.0 | 3.0 | 0.00 | 0.02 | 0.00 | 81 | 1018.5 |
| 20260508143021 | 58 | 94 | 0.0 | 3.0 | 0.00 | 0.02 | 0.00 | 83 | 1018.5 |
| 20260508142520 | 57 | 243 | 0.0 | 0.0 | 0.00 | 0.02 | 0.00 | 83 | 1018.5 |
| 20260508142019 | 56 | 351 | 0.0 | 0.0 | 0.00 | 0.02 | 0.00 | 80 | 1018.6 |
| 20260508141521 | 56 | 23 | 0.0 | 0.0 | 0.00 | 0.02 | 0.00 | 88 | 1018.6 |
| 20260508141015 | 55 | 23 | 0.0 | 0.0 | 0.00 | 0.02 | 0.00 | 89 | 1018.7 |
| 20260508140514 | 54 | 360 | 0.0 | 0.0 | 0.00 | 0.02 | 0.00 | 89 | 1018.7 |
| 20260508140012 | 54 | 360 | 0.0 | 0.0 | 0.00 | 0.03 | 0.00 | 89 | 1018.8 |
| 20260508135512 | 53 | 235 | 0.0 | 0.0 | 0.00 | 0.03 | 0.00 | 90 | 1018.8 |
| 20260508135011 | 53 | 188 | 0.0 | 0.0 | 0.00 | 0.03 | 0.00 | 91 | 1018.8 |
| 20260508134512 | 52 | 188 | 0.0 | 0.0 | 0.00 | 0.03 | 0.00 | 91 | 1018.8 |
| 20260508134008 | 52 | 217 | 0.0 | 1.0 | 0.00 | 0.03 | 0.00 | 94 | 1018.8 |
| 20260508133507 | 51 | 248 | 0.0 | 1.0 | 0.00 | 0.03 | 0.00 | 95 | 1018.7 |
| 20260508133006 | 51 | 105 | 0.0 | 0.0 | 0.00 | 0.03 | 0.00 | 96 | 1018.7 |
| 20260508132507 | 50 | 105 | 0.0 | 0.0 | 0.00 | 0.03 | 0.00 | 96 | 1018.7 |
| 20260508132005 | 50 | 112 | 0.0 | 0.0 | 0.00 | 0.03 | 0.00 | 96 | 1018.7 |
| 20260508131505 | 50 | 115 | 0.0 | 0.0 | 0.00 | 0.03 | 0.00 | 97 | 1018.5 |
| 20260508131005 | 49 | 115 | 0.0 | 0.0 | 0.00 | 0.03 | 0.00 | 96 | 1018.4 |
| 20260508130503 | 49 | 115 | 0.0 | 0.0 | 0.00 | 0.03 | 0.00 | 97 | 1018.5 |
| 20260508130003 | 49 | 117 | 0.0 | 0.0 | 0.00 | 0.03 | 0.00 | 97 | 1018.5 |
| 20260508125503 | 49 | 139 | 0.0 | 0.0 | 0.00 | 0.03 | 0.00 | 97 | 1018.6 |
| 20260508125003 | 49 | 19 | 0.0 | 0.0 | 0.00 | 0.03 | 0.00 | 97 | 1018.6 |
| 20260508124502 | 48 | 15 | 0.0 | 0.0 | 0.00 | 0.03 | 0.00 | 97 | 1018.6 |
| 20260508124001 | 48 | 15 | 0.0 | 0.0 | 0.00 | 0.03 | 0.00 | 97 | 1018.6 |
| 20260508123502 | 48 | 15 | 0.0 | 0.0 | 0.00 | 0.03 | 0.00 | 97 | 1018.6 |
| 20260508123000 | 48 | 15 | 0.0 | 0.0 | 0.00 | 0.03 | 0.00 | 97 | 1018.6 |
| 20260508122500 | 47 | 15 | 0.0 | 0.0 | 0.00 | 0.03 | 0.00 | 97 | 1018.5 |
| 20260508122100 | 47 | 15 | 0.0 | 0.0 | 0.00 | 0.03 | 0.00 | 97 | 1018.5 |
| 20260508121610 | 47 | 15 | 0.0 | 0.0 | 0.00 | 0.03 | 0.00 | 97 | 1018.5 |
| 20260508121102 | 47 | 15 | 0.0 | 0.0 | 0.00 | 0.03 | 0.00 | 97 | 1018.4 |
| 20260508120557 | 46 | 17 | 0.0 | 0.0 | 0.00 | 0.03 | 0.00 | 97 | 1018.4 |
| 20260508115557 | 45 | 75 | 0.0 | 1.0 | 0.00 | 0.03 | 0.00 | 96 | 1018.2 |
| 20260508115056 | 44 | 89 | 0.0 | 1.0 | 0.00 | 0.03 | 0.00 | 96 | 1018.1 |
| 20260508114556 | 44 | 90 | 0.0 | 0.0 | 0.00 | 0.03 | 0.00 | 96 | 1018.1 |
| 20260508114054 | 43 | 90 | 0.0 | 0.0 | 0.00 | 0.03 | 0.00 | 96 | 1018.0 |
| 20260508113553 | 43 | 90 | 0.0 | 0.0 | 0.00 | 0.03 | 0.00 | 96 | 1017.9 |
| 20260508113056 | 43 | 90 | 0.0 | 0.0 | 0.00 | 0.03 | 0.00 | 96 | 1017.8 |
| 20260508112552 | 43 | 90 | 0.0 | 0.0 | 0.00 | 0.03 | 0.00 | 96 | 1017.8 |
| 20260508112051 | 43 | 90 | 0.0 | 0.0 | 0.00 | 0.03 | 0.00 | 96 | 1017.8 |
| 20260508111558 | 43 | 190 | 0.0 | 0.0 | 0.00 | 0.03 | 0.00 | 96 | 1017.6 |
| 20260508111050 | 43 | 190 | 0.0 | 0.0 | 0.00 | 0.03 | 0.00 | 96 | 1017.5 |
| 20260508110548 | 43 | 190 | 0.0 | 0.0 | 0.00 | 0.03 | 0.00 | 96 | 1017.5 |
| 20260508110058 | 43 | 190 | 0.0 | 0.0 | 0.00 | 0.03 | 0.00 | 95 | 1017.4 |
| 20260508105549 | 43 | 190 | 0.0 | 0.0 | 0.00 | 0.04 | 0.00 | 95 | 1017.4 |
| 20260508105050 | 43 | 190 | 0.0 | 0.0 | 0.00 | 0.04 | 0.00 | 95 | 1017.3 |
| 20260508104546 | 43 | 190 | 0.0 | 0.0 | 0.00 | 0.04 | 0.00 | 95 | 1017.2 |
| 20260508104045 | 43 | 190 | 0.0 | 0.0 | 0.00 | 0.04 | 0.00 | 95 | 1017.1 |
| 20260508103544 | 43 | 190 | 0.0 | 0.0 | 0.00 | 0.04 | 0.00 | 95 | 1017.0 |
| 20260508103146 | 43 | 190 | 0.0 | 0.0 | 0.00 | 0.04 | 0.00 | 95 | 1016.9 |
| 20260508102543 | 43 | 190 | 0.0 | 0.0 | 0.00 | 0.04 | 0.00 | 95 | 1016.9 |
| 20260508102043 | 43 | 190 | 0.0 | 0.0 | 0.00 | 0.04 | 0.00 | 95 | 1016.9 |
| 20260508101546 | 43 | 190 | 0.0 | 0.0 | 0.00 | 0.04 | 0.00 | 95 | 1016.8 |
| 20260508101042 | 43 | 190 | 0.0 | 0.0 | 0.00 | 0.04 | 0.00 | 95 | 1016.7 |
| 20260508100541 | 43 | 190 | 0.0 | 0.0 | 0.00 | 0.04 | 0.00 | 95 | 1016.7 |
| 20260508100041 | 43 | 190 | 0.0 | 0.0 | 0.00 | 0.04 | 0.00 | 95 | 1016.5 |
| 20260508095540 | 44 | 190 | 0.0 | 0.0 | 0.00 | 0.09 | 0.00 | 95 | 1016.5 |
| 20260508095040 | 44 | 190 | 0.0 | 0.0 | 0.00 | 0.09 | 0.00 | 95 | 1016.5 |
| 20260508094601 | 44 | 190 | 0.0 | 0.0 | 0.00 | 0.09 | 0.00 | 95 | 1016.5 |
| 20260508094040 | 44 | 190 | 0.0 | 0.0 | 0.00 | 0.09 | 0.00 | 95 | 1016.5 |
| 20260508093540 | 44 | 190 | 0.0 | 0.0 | 0.00 | 0.09 | 0.00 | 95 | 1016.5 |
| 20260508093040 | 44 | 190 | 0.0 | 0.0 | 0.00 | 0.09 | 0.00 | 95 | 1016.5 |
| 20260508092538 | 44 | 190 | 0.0 | 0.0 | 0.00 | 0.09 | 0.00 | 95 | 1016.5 |
| 20260508092038 | 44 | 190 | 0.0 | 0.0 | 0.00 | 0.09 | 0.00 | 95 | 1016.4 |
| 20260508091539 | 44 | 190 | 0.0 | 0.0 | 0.00 | 0.09 | 0.00 | 95 | 1016.5 |
| 20260508091037 | 45 | 190 | 0.0 | 0.0 | 0.00 | 0.09 | 0.00 | 95 | 1016.4 |
| 20260508090536 | 45 | 190 | 0.0 | 0.0 | 0.00 | 0.09 | 0.00 | 95 | 1016.4 |
| 20260508090037 | 45 | 190 | 0.0 | 0.0 | 0.00 | 0.09 | 0.00 | 95 | 1016.4 |
| 20260508085534 | 45 | 190 | 0.0 | 0.0 | 0.00 | 0.09 | 0.00 | 95 | 1016.4 |
| 20260508085032 | 45 | 190 | 0.0 | 0.0 | 0.00 | 0.09 | 0.00 | 95 | 1016.5 |
| 20260508084633 | 45 | 190 | 0.0 | 0.0 | 0.00 | 0.09 | 0.00 | 95 | 1016.5 |
| 20260508084030 | 45 | 190 | 0.0 | 0.0 | 0.00 | 0.09 | 0.00 | 95 | 1016.5 |
| 20260508083533 | 45 | 190 | 0.0 | 0.0 | 0.00 | 0.09 | 0.00 | 95 | 1016.5 |
| 20260508083033 | 46 | 190 | 0.0 | 0.0 | 0.00 | 0.09 | 0.00 | 95 | 1016.6 |
| 20260508082529 | 46 | 190 | 0.0 | 0.0 | 0.00 | 0.09 | 0.00 | 95 | 1016.5 |
| 20260508082030 | 46 | 190 | 0.0 | 0.0 | 0.00 | 0.09 | 0.00 | 95 | 1016.4 |
| 20260508081529 | 46 | 190 | 0.0 | 0.0 | 0.00 | 0.09 | 0.00 | 95 | 1016.4 |
| 20260508081029 | 46 | 190 | 0.0 | 0.0 | 0.00 | 0.09 | 0.00 | 95 | 1016.5 |
| 20260508080529 | 46 | 190 | 0.0 | 0.0 | 0.00 | 0.09 | 0.00 | 95 | 1016.5 |
| 20260508080026 | 46 | 190 | 0.0 | 0.0 | 0.00 | 0.10 | 0.00 | 95 | 1016.5 |
| 20260508075526 | 46 | 190 | 0.0 | 0.0 | 0.00 | 0.10 | 0.00 | 95 | 1016.5 |
| 20260508075027 | 46 | 190 | 0.0 | 0.0 | 0.00 | 0.10 | 0.00 | 95 | 1016.6 |
| 20260508074525 | 46 | 190 | 0.0 | 0.0 | 0.00 | 0.10 | 0.00 | 95 | 1016.7 |
| 20260508074024 | 46 | 190 | 0.0 | 0.0 | 0.00 | 0.10 | 0.00 | 95 | 1016.7 |
| 20260508073523 | 47 | 190 | 0.0 | 0.0 | 0.00 | 0.10 | 0.00 | 95 | 1016.7 |
| 20260508073028 | 47 | 190 | 0.0 | 0.0 | 0.00 | 0.10 | 0.00 | 95 | 1016.5 |
| 20260508072523 | 47 | 190 | 0.0 | 0.0 | 0.00 | 0.10 | 0.00 | 95 | 1016.6 |
| 20260508072023 | 47 | 190 | 0.0 | 0.0 | 0.00 | 0.10 | 0.00 | 95 | 1016.8 |
| 20260508071527 | 47 | 190 | 0.0 | 0.0 | 0.00 | 0.10 | 0.00 | 95 | 1016.7 |
| 20260508071022 | 47 | 190 | 0.0 | 0.0 | 0.00 | 0.10 | 0.00 | 95 | 1016.7 |
| 20260508070521 | 47 | 190 | 0.0 | 0.0 | 0.00 | 0.10 | 0.00 | 95 | 1016.6 |
| 20260508070021 | 47 | 190 | 0.0 | 0.0 | 0.00 | 0.10 | 0.00 | 95 | 1016.7 |
| 20260508065524 | 47 | 190 | 0.0 | 0.0 | 0.00 | 0.10 | 0.00 | 95 | 1016.7 |
| 20260508065019 | 48 | 190 | 0.0 | 0.0 | 0.00 | 0.10 | 0.00 | 95 | 1016.6 |
| 20260508064531 | 48 | 190 | 0.0 | 0.0 | 0.00 | 0.10 | 0.00 | 95 | 1016.7 |
| 20260508064018 | 48 | 190 | 0.0 | 0.0 | 0.00 | 0.10 | 0.00 | 95 | 1016.7 |
| 20260508063517 | 48 | 190 | 0.0 | 0.0 | 0.00 | 0.10 | 0.00 | 95 | 1016.6 |
| 20260508063023 | 48 | 190 | 0.0 | 0.0 | 0.00 | 0.10 | 0.00 | 95 | 1016.6 |
| 20260508062516 | 48 | 190 | 0.0 | 0.0 | 0.00 | 0.10 | 0.00 | 95 | 1016.7 |
| 20260508062016 | 49 | 190 | 0.0 | 0.0 | 0.00 | 0.10 | 0.00 | 95 | 1016.4 |
| 20260508061519 | 49 | 190 | 0.0 | 0.0 | 0.00 | 0.10 | 0.00 | 95 | 1016.6 |
| 20260508061023 | 49 | 190 | 0.0 | 0.0 | 0.00 | 0.10 | 0.00 | 95 | 1016.5 |
| 20260508060514 | 49 | 190 | 0.0 | 0.0 | 0.00 | 0.10 | 0.00 | 95 | 1016.6 |
| 20260508060017 | 49 | 190 | 0.0 | 0.0 | 0.00 | 0.10 | 0.00 | 95 | 1016.6 |
| 20260508055513 | 49 | 190 | 0.0 | 0.0 | 0.00 | 0.10 | 0.00 | 95 | 1016.9 |
| 20260508055015 | 49 | 190 | 0.0 | 0.0 | 0.00 | 0.10 | 0.00 | 95 | 1016.7 |
| 20260508054516 | 49 | 190 | 0.0 | 0.0 | 0.00 | 0.10 | 0.00 | 95 | 1016.7 |
| 20260508054012 | 49 | 190 | 0.0 | 0.0 | 0.00 | 0.10 | 0.00 | 95 | 1016.7 |
| 20260508053512 | 49 | 190 | 0.0 | 0.0 | 0.00 | 0.10 | 0.00 | 95 | 1016.7 |
| 20260508053020 | 49 | 190 | 0.0 | 0.0 | 0.00 | 0.10 | 0.00 | 95 | 1016.6 |
| 20260508052512 | 49 | 190 | 0.0 | 0.0 | 0.00 | 0.10 | 0.00 | 95 | 1016.5 |
| 20260508052011 | 49 | 190 | 0.0 | 0.0 | 0.00 | 0.10 | 0.00 | 95 | 1016.6 |
| 20260508051511 | 49 | 190 | 0.0 | 0.0 | 0.00 | 0.10 | 0.00 | 95 | 1016.7 |
| 20260508051011 | 49 | 190 | 0.0 | 0.0 | 0.00 | 0.10 | 0.00 | 95 | 1016.7 |
| 20260508050511 | 49 | 190 | 0.0 | 0.0 | 0.00 | 0.10 | 0.00 | 95 | 1016.7 |
| 20260508050018 | 50 | 190 | 0.0 | 0.0 | 0.00 | 0.11 | 0.00 | 95 | 1016.7 |
| 20260508045511 | 50 | 190 | 0.0 | 0.0 | 0.00 | 0.11 | 0.00 | 95 | 1016.7 |
| 20260508045007 | 50 | 190 | 0.0 | 0.0 | 0.00 | 0.11 | 0.00 | 95 | 1016.6 |
| 20260508044507 | 50 | 190 | 0.0 | 0.0 | 0.00 | 0.11 | 0.00 | 95 | 1016.5 |
| 20260508044009 | 50 | 190 | 0.0 | 0.0 | 0.00 | 0.11 | 0.00 | 95 | 1016.5 |
| 20260508043506 | 50 | 190 | 0.0 | 0.0 | 0.00 | 0.11 | 0.00 | 95 | 1016.6 |
| 20260508043008 | 50 | 190 | 0.0 | 0.0 | 0.00 | 0.11 | 0.00 | 95 | 1016.5 |
| 20260508042505 | 50 | 190 | 0.0 | 0.0 | 0.00 | 0.11 | 0.00 | 95 | 1016.4 |
| 20260508042004 | 50 | 190 | 0.0 | 0.0 | 0.00 | 0.11 | 0.00 | 95 | 1016.4 |
| 20260508041504 | 50 | 190 | 0.0 | 0.0 | 0.00 | 0.11 | 0.00 | 94 | 1016.4 |
| 20260508041003 | 51 | 190 | 0.0 | 0.0 | 0.00 | 0.11 | 0.00 | 94 | 1016.3 |
| 20260508040502 | 51 | 190 | 0.0 | 0.0 | 0.00 | 0.11 | 0.00 | 95 | 1016.3 |
| 20260508040001 | 51 | 190 | 0.0 | 0.0 | 0.00 | 0.11 | 0.11 | 95 | 1016.3 |
| 20260508035603 | 51 | 190 | 0.0 | 0.0 | 0.00 | 0.11 | 0.11 | 95 | 1016.4 |
| 20260508035503 | 51 | 190 | 0.0 | 0.0 | 0.00 | 0.11 | 0.11 | 95 | 1016.3 |
| 20260508035104 | 51 | 190 | 0.0 | 0.0 | 0.00 | 0.11 | 0.11 | 95 | 1016.3 |
| 20260508034605 | 51 | 190 | 0.0 | 0.0 | 0.00 | 0.11 | 0.11 | 94 | 1016.2 |
| 20260508034059 | 51 | 190 | 0.0 | 0.0 | 0.00 | 0.11 | 0.11 | 95 | 1016.1 |
| 20260508033558 | 51 | 190 | 0.0 | 0.0 | 0.00 | 0.11 | 0.11 | 95 | 1016.1 |
| 20260508033058 | 51 | 190 | 0.0 | 0.0 | 0.00 | 0.11 | 0.11 | 95 | 1015.8 |
| 20260508032558 | 51 | 190 | 0.0 | 0.0 | 0.00 | 0.11 | 0.11 | 95 | 1016.1 |
| 20260508032101 | 51 | 190 | 0.0 | 0.0 | 0.00 | 0.11 | 0.11 | 95 | 1016.2 |
| 20260508031559 | 52 | 190 | 0.0 | 0.0 | 0.00 | 0.11 | 0.11 | 95 | 1016.2 |
| 20260508031059 | 52 | 190 | 0.0 | 0.0 | 0.00 | 0.11 | 0.11 | 94 | 1016.1 |
| 20260508030556 | 52 | 190 | 0.0 | 0.0 | 0.00 | 0.11 | 0.11 | 94 | 1016.1 |
| 20260508030058 | 52 | 190 | 0.0 | 0.0 | 0.00 | 0.11 | 0.11 | 94 | 1016.0 |
| 20260508025553 | 52 | 190 | 0.0 | 0.0 | 0.00 | 0.12 | 0.11 | 94 | 1015.8 |
| 20260508025053 | 52 | 190 | 0.0 | 0.0 | 0.00 | 0.12 | 0.11 | 94 | 1015.7 |
| 20260508024553 | 52 | 190 | 0.0 | 0.0 | 0.00 | 0.12 | 0.11 | 94 | 1015.7 |
| 20260508024053 | 52 | 190 | 0.0 | 0.0 | 0.00 | 0.12 | 0.11 | 94 | 1015.6 |
| 20260508023552 | 52 | 190 | 0.0 | 0.0 | 0.00 | 0.12 | 0.11 | 94 | 1015.5 |
| 20260508023052 | 53 | 190 | 0.0 | 0.0 | 0.00 | 0.12 | 0.11 | 94 | 1015.6 |
| 20260508022551 | 53 | 190 | 0.0 | 0.0 | 0.00 | 0.12 | 0.11 | 94 | 1015.7 |
| 20260508022051 | 53 | 190 | 0.0 | 0.0 | 0.00 | 0.12 | 0.11 | 94 | 1015.7 |
| 20260508021553 | 53 | 190 | 0.0 | 0.0 | 0.00 | 0.12 | 0.11 | 93 | 1015.6 |
| 20260508021050 | 53 | 190 | 0.0 | 0.0 | 0.00 | 0.12 | 0.11 | 93 | 1015.6 |
| 20260508020552 | 53 | 190 | 0.0 | 0.0 | 0.00 | 0.12 | 0.11 | 93 | 1015.5 |
| 20260508020048 | 53 | 190 | 0.0 | 0.0 | 0.00 | 0.12 | 0.11 | 93 | 1015.3 |
| 20260508015547 | 53 | 190 | 0.0 | 0.0 | 0.00 | 0.13 | 0.11 | 93 | 1015.1 |
| 20260508015048 | 54 | 190 | 0.0 | 0.0 | 0.00 | 0.13 | 0.11 | 93 | 1015.0 |
| 20260508014552 | 54 | 190 | 0.0 | 0.0 | 0.00 | 0.13 | 0.11 | 93 | 1014.8 |
| 20260508014048 | 54 | 190 | 0.0 | 0.0 | 0.00 | 0.13 | 0.11 | 93 | 1014.7 |
| 20260508013544 | 54 | 190 | 0.0 | 0.0 | 0.00 | 0.13 | 0.11 | 93 | 1014.7 |
| 20260508013046 | 54 | 190 | 0.0 | 0.0 | 0.00 | 0.13 | 0.11 | 93 | 1014.7 |
| 20260508012543 | 55 | 190 | 0.0 | 0.0 | 0.00 | 0.13 | 0.11 | 93 | 1014.6 |
| 20260508012043 | 55 | 190 | 0.0 | 0.0 | 0.00 | 0.13 | 0.11 | 93 | 1014.6 |
| 20260508011545 | 55 | 190 | 0.0 | 0.0 | 0.00 | 0.13 | 0.11 | 93 | 1014.5 |
| 20260508011042 | 55 | 190 | 0.0 | 0.0 | 0.00 | 0.13 | 0.11 | 92 | 1014.3 |
| 20260508010547 | 55 | 190 | 0.0 | 0.0 | 0.00 | 0.13 | 0.11 | 92 | 1014.4 |
| 20260508010043 | 55 | 190 | 0.0 | 0.0 | 0.00 | 0.13 | 0.11 | 92 | 1014.3 |
| 20260508005543 | 56 | 190 | 0.0 | 0.0 | 0.00 | 0.26 | 0.11 | 92 | 1014.1 |
| 20260508005043 | 56 | 190 | 0.0 | 0.0 | 0.00 | 0.26 | 0.11 | 92 | 1014.2 |
| 20260508004543 | 56 | 190 | 0.0 | 0.0 | 0.00 | 0.26 | 0.11 | 91 | 1014.2 |
| 20260508004041 | 56 | 190 | 0.0 | 0.0 | 0.00 | 0.26 | 0.11 | 91 | 1014.1 |
| 20260508003541 | 56 | 190 | 0.0 | 0.0 | 0.00 | 0.26 | 0.11 | 90 | 1014.1 |
| 20260508003057 | 57 | 190 | 0.0 | 0.0 | 0.00 | 0.26 | 0.11 | 91 | 1014.0 |
| 20260508002544 | 57 | 190 | 0.0 | 0.0 | 0.00 | 0.26 | 0.11 | 91 | 1013.9 |
| 20260508002041 | 57 | 190 | 0.0 | 0.0 | 0.00 | 0.26 | 0.11 | 90 | 1013.8 |
| 20260508001544 | 57 | 190 | 0.0 | 0.0 | 0.00 | 0.26 | 0.11 | 90 | 1013.7 |
| 20260508001040 | 58 | 190 | 0.0 | 0.0 | 0.00 | 0.26 | 0.11 | 91 | 1013.6 |
| 20260508000540 | 58 | 190 | 0.0 | 0.0 | 0.00 | 0.26 | 0.11 | 90 | 1013.7 |
| 20260508000044 | 58 | 190 | 0.0 | 0.0 | 0.00 | 0.26 | 0.11 | 90 | 1013.6 |
| 20260507235544 | 58 | 96 | 0.0 | 0.0 | 0.00 | 0.37 | 0.11 | 89 | 1013.6 |
| 20260507235039 | 58 | 96 | 0.0 | 0.0 | 0.00 | 0.37 | 0.11 | 89 | 1013.6 |
| 20260507234542 | 58 | 96 | 0.0 | 1.0 | 0.00 | 0.37 | 0.11 | 88 | 1013.6 |
| 20260507234039 | 58 | 96 | 0.0 | 1.0 | 0.00 | 0.37 | 0.11 | 88 | 1013.5 |
| 20260507233539 | 58 | 96 | 0.0 | 1.0 | 0.00 | 0.37 | 0.11 | 87 | 1013.6 |
| 20260507233039 | 59 | 95 | 0.0 | 0.0 | 0.00 | 0.37 | 0.11 | 87 | 1013.7 |
| 20260507232539 | 59 | 95 | 0.0 | 2.0 | 0.00 | 0.37 | 0.11 | 86 | 1013.7 |
| 20260507232038 | 59 | 95 | 0.0 | 3.0 | 0.00 | 0.37 | 0.11 | 86 | 1013.7 |
| 20260507231541 | 59 | 93 | 0.0 | 3.0 | 0.00 | 0.37 | 0.11 | 86 | 1013.8 |
| 20260507231041 | 59 | 144 | 0.0 | 2.0 | 0.00 | 0.37 | 0.11 | 87 | 1013.9 |
| 20260507230538 | 59 | 144 | 0.0 | 1.0 | 0.00 | 0.37 | 0.11 | 87 | 1013.8 |
| 20260507230042 | 60 | 144 | 0.0 | 3.0 | 0.00 | 0.37 | 0.11 | 86 | 1013.8 |
| 20260507225540 | 60 | 130 | 0.0 | 3.0 | 0.00 | 0.43 | 0.11 | 84 | 1013.8 |